Total_Precipitation_Accumulation
0.47 0.61 0.52 0.33 0.31 0.29 0.25 0.29 0.25 0.16 0.13 0.20 0.20 0.12 0.06 0.06 0.06 0.06 0.05 0.04 0.04 0.04 0.04 0.06 0.10 0.13 0.18 0.24 0.29 0.33 0.36 0.39 0.47 0.55 0.65 0.59 0.51 0.48 0.41 0.34 0.32 0.28 0.25 0.21
0.60 0.55 0.29 0.20 0.23 0.30 0.32 0.35 0.27 0.20 0.16 0.25 0.22 0.12 0.05 0.05 0.06 0.05 0.04 0.04 0.03 0.03 0.03 0.05 0.09 0.13 0.16 0.21 0.26 0.30 0.36 0.38 0.43 0.49 0.54 0.58 0.48 0.46 0.43 0.35 0.32 0.29 0.26 0.22
0.45 0.31 0.16 0.25 0.33 0.42 0.39 0.32 0.23 0.22 0.21 0.26 0.29 0.20 0.06 0.04 0.04 0.03 0.03 0.03 0.04 0.04 0.03 0.03 0.07 0.13 0.14 0.18 0.22 0.25 0.32 0.39 0.42 0.52 0.59 0.64 0.66 0.55 0.51 0.43 0.34 0.32 0.29 0.24
0.35 0.20 0.20 0.31 0.36 0.42 0.42 0.22 0.20 0.24 0.38 0.43 0.34 0.36 0.09 0.05 0.05 0.04 0.03 0.04 0.05 0.05 0.03 0.02 0.04 0.11 0.13 0.14 0.20 0.26 0.32 0.38 0.39 0.54 0.64 0.59 0.60 0.51 0.42 0.36 0.31 0.30 0.30 0.26
0.45 0.24 0.26 0.34 0.26 0.29 0.33 0.20 0.24 0.32 0.45 0.52 0.37 0.39 0.15 0.04 0.04 0.04 0.03 0.03 0.04 0.05 0.04 0.02 0.03 0.06 0.11 0.12 0.17 0.26 0.33 0.41 0.40 0.48 0.63 0.61 0.53 0.45 0.36 0.34 0.32 0.30 0.30 0.29
0.42 0.27 0.31 0.27 0.18 0.22 0.30 0.37 0.42 0.48 0.73 0.91 0.34 0.29 0.17 0.10 0.10 0.06 0.04 0.03 0.04 0.04 0.04 0.03 0.02 0.04 0.10 0.13 0.17 0.25 0.34 0.41 0.42 0.44 0.54 0.62 0.54 0.47 0.40 0.34 0.31 0.30 0.29 0.29
0.51 0.36 0.30 0.26 0.30 0.35 0.51 0.79 1.13 1.16 1.20 0.75 0.14 0.17 0.17 0.11 0.10 0.10 0.07 0.04 0.04 0.03 0.04 0.04 0.03 0.04 0.07 0.12 0.16 0.22 0.32 0.39 0.43 0.41 0.45 0.50 0.55 0.51 0.41 0.32 0.29 0.27 0.26 0.25
0.55 0.40 0.32 0.31 0.33 0.45 0.54 0.72 0.94 0.85 0.56 0.21 0.07 0.14 0.13 0.08 0.06 0.07 0.05 0.03 0.02 0.03 0.03 0.04 0.04 0.04 0.07 0.09 0.13 0.18 0.26 0.35 0.44 0.43 0.41 0.42 0.47 0.54 0.46 0.35 0.29 0.25 0.22 0.20
0.59 0.36 0.21 0.23 0.23 0.33 0.50 0.54 0.46 0.59 0.43 0.27 0.17 0.11 0.09 0.03 0.03 0.04 0.04 0.03 0.03 0.03 0.04 0.04 0.04 0.05 0.06 0.09 0.10 0.15 0.21 0.29 0.39 0.46 0.43 0.39 0.40 0.46 0.48 0.39 0.31 0.28 0.21 0.19
0.63 0.47 0.21 0.19 0.30 0.39 0.44 0.51 0.63 0.89 0.74 0.38 0.19 0.14 0.16 0.09 0.07 0.06 0.05 0.05 0.04 0.03 0.04 0.05 0.05 0.06 0.06 0.08 0.09 0.14 0.19 0.25 0.31 0.42 0.49 0.43 0.37 0.38 0.43 0.44 0.35 0.27 0.24 0.20
0.63 0.62 0.35 0.31 0.47 0.55 0.54 0.68 0.86 0.88 0.60 0.41 0.24 0.21 0.22 0.15 0.12 0.11 0.09 0.07 0.06 0.05 0.05 0.06 0.06 0.06 0.07 0.08 0.09 0.13 0.20 0.24 0.28 0.34 0.42 0.46 0.39 0.38 0.41 0.45 0.39 0.30 0.23 0.21
0.58 0.71 0.47 0.29 0.30 0.33 0.47 0.61 0.75 0.88 0.60 0.30 0.24 0.21 0.18 0.14 0.12 0.12 0.10 0.07 0.05 0.04 0.04 0.04 0.04 0.06 0.08 0.10 0.11 0.13 0.20 0.23 0.24 0.29 0.35 0.39 0.39 0.38 0.42 0.41 0.43 0.38 0.28 0.21
0.80 1.05 0.85 0.55 0.48 0.47 0.57 0.52 0.55 0.62 0.52 0.31 0.20 0.13 0.09 0.08 0.08 0.08 0.09 0.08 0.06 0.04 0.03 0.03 0.03 0.04 0.06 0.08 0.09 0.12 0.19 0.24 0.23 0.27 0.32 0.34 0.35 0.35 0.34 0.34 0.36 0.41 0.37 0.27
0.96 1.05 0.77 0.64 0.53 0.50 0.50 0.41 0.39 0.57 0.62 0.31 0.13 0.08 0.06 0.08 0.09 0.08 0.09 0.10 0.08 0.06 0.04 0.04 0.04 0.04 0.04 0.05 0.05 0.08 0.16 0.24 0.26 0.27 0.31 0.31 0.30 0.30 0.28 0.30 0.30 0.32 0.34 0.34
0.72 0.72 0.36 0.19 0.17 0.24 0.25 0.24 0.27 0.35 0.32 0.23 0.11 0.09 0.09 0.10 0.12 0.13 0.12 0.11 0.10 0.07 0.06 0.06 0.05 0.05 0.05 0.06 0.05 0.06 0.10 0.20 0.27 0.26 0.29 0.25 0.25 0.28 0.28 0.28 0.28 0.28 0.28 0.28
0.65 0.61 0.30 0.17 0.12 0.17 0.19 0.16 0.17 0.19 0.14 0.11 0.09 0.10 0.11 0.13 0.13 0.12 0.11 0.11 0.11 0.09 0.07 0.06 0.06 0.05 0.06 0.08 0.06 0.05 0.07 0.15 0.23 0.22 0.26 0.25 0.24 0.27 0.29 0.28 0.26 0.27 0.27 0.25
0.63 0.62 0.49 0.27 0.14 0.27 0.29 0.17 0.15 0.15 0.13 0.11 0.12 0.13 0.12 0.13 0.14 0.14 0.13 0.11 0.10 0.08 0.07 0.06 0.06 0.05 0.06 0.08 0.06 0.05 0.05 0.11 0.19 0.20 0.23 0.27 0.24 0.24 0.28 0.30 0.29 0.26 0.26 0.26
0.44 0.56 0.64 0.39 0.35 0.56 0.29 0.13 0.12 0.14 0.15 0.13 0.11 0.10 0.11 0.14 0.15 0.17 0.15 0.13 0.10 0.08 0.08 0.05 0.05 0.06 0.06 0.07 0.05 0.05 0.04 0.08 0.15 0.18 0.20 0.23 0.23 0.23 0.27 0.31 0.30 0.28 0.25 0.24
0.19 0.45 0.67 0.52 0.45 0.26 0.15 0.15 0.18 0.24 0.23 0.15 0.10 0.07 0.06 0.09 0.13 0.18 0.14 0.11 0.10 0.09 0.09 0.07 0.06 0.06 0.06 0.06 0.05 0.04 0.05 0.07 0.14 0.17 0.16 0.19 0.22 0.21 0.24 0.28 0.30 0.28 0.27 0.24
0.20 0.40 0.69 0.54 0.43 0.22 0.17 0.13 0.15 0.23 0.31 0.16 0.10 0.08 0.07 0.10 0.17 0.19 0.14 0.11 0.09 0.08 0.08 0.08 0.08 0.08 0.08 0.06 0.05 0.04 0.04 0.06 0.11 0.13 0.11 0.16 0.19 0.19 0.21 0.22 0.27 0.28 0.26 0.25
0.52 0.71 0.73 0.48 0.35 0.13 0.12 0.14 0.17 0.34 0.38 0.17 0.11 0.10 0.09 0.12 0.14 0.13 0.13 0.13 0.10 0.08 0.07 0.07 0.08 0.09 0.08 0.07 0.07 0.06 0.05 0.05 0.09 0.11 0.09 0.14 0.18 0.18 0.20 0.22 0.23 0.27 0.26 0.24
0.49 0.63 0.55 0.42 0.37 0.16 0.14 0.21 0.35 0.38 0.19 0.12 0.10 0.08 0.07 0.07 0.06 0.07 0.09 0.12 0.12 0.09 0.08 0.09 0.08 0.08 0.07 0.08 0.08 0.07 0.06 0.06 0.08 0.09 0.10 0.14 0.18 0.19 0.21 0.21 0.20 0.23 0.27 0.25
0.28 0.40 0.45 0.39 0.22 0.12 0.13 0.21 0.23 0.17 0.14 0.10 0.08 0.07 0.06 0.05 0.04 0.06 0.09 0.10 0.12 0.11 0.10 0.10 0.10 0.08 0.08 0.07 0.09 0.09 0.07 0.07 0.07 0.08 0.10 0.13 0.18 0.21 0.21 0.20 0.20 0.23 0.27 0.27
0.19 0.20 0.26 0.22 0.10 0.08 0.09 0.11 0.11 0.09 0.08 0.08 0.08 0.07 0.06 0.05 0.04 0.05 0.07 0.09 0.10 0.11 0.11 0.11 0.10 0.09 0.09 0.08 0.08 0.09 0.08 0.08 0.08 0.08 0.09 0.12 0.17 0.23 0.25 0.22 0.20 0.21 0.25 0.32
0.15 0.18 0.19 0.14 0.07 0.09 0.09 0.08 0.07 0.06 0.06 0.07 0.07 0.06 0.05 0.05 0.05 0.05 0.06 0.08 0.10 0.11 0.11 0.10 0.10 0.09 0.09 0.09 0.10 0.12 0.09 0.09 0.10 0.09 0.10 0.12 0.16 0.23 0.27 0.25 0.22 0.21 0.21 0.33
0.05 0.09 0.13 0.11 0.07 0.10 0.09 0.07 0.06 0.06 0.06 0.07 0.07 0.06 0.05 0.04 0.05 0.05 0.05 0.07 0.10 0.12 0.11 0.09 0.09 0.09 0.10 0.10 0.12 0.15 0.12 0.11 0.12 0.11 0.12 0.15 0.17 0.22 0.26 0.26 0.28 0.31 0.27 0.29